Time,TemperatureF,DewpointF,PressureIn,WindDirection,WindDirectionDegrees,WindSpeedMPH,WindSpeedGustMPH,Humidity,HourlyPrecipIn,Conditions,Clouds,dailyrainin,SolarRadiationWatts/m^2,SoftwareType,DateUTC
2013-05-23 00:00:00,-999.0,-99.9,29.92,WSW,254,0.0,0.0,-999,-99.99,,,-99.99,0.000000,,2013-05-23 07:00:00,
2013-05-23 00:02:00,-999.0,-99.9,29.90,WSW,254,0.0,0.0,-999,-99.99,,,-99.99,0.000000,,2013-05-23 07:02:00,
2013-05-23 00:11:00,-999.0,-99.9,29.91,WSW,254,0.0,0.0,-999,-99.99,,,-99.99,0.000000,,2013-05-23 07:11:00,
2013-05-23 00:22:00,-999.0,-99.9,29.90,WSW,254,0.0,0.0,-999,-99.99,,,-99.99,0.000000,,2013-05-23 07:22:00,
2013-05-23 00:32:00,-999.0,-99.9,29.92,WSW,254,0.0,0.0,-999,-99.99,,,-99.99,0.000000,,2013-05-23 07:32:00,
2013-05-23 00:42:00,-999.0,-99.9,29.92,WSW,254,0.0,0.0,-999,-99.99,,,-99.99,0.000000,,2013-05-23 07:42:00,
2013-05-23 00:59:00,-999.0,-99.9,29.92,WSW,254,0.0,0.0,-999,-99.99,,,-99.99,0.000000,,2013-05-23 07:59:00,
2013-05-23 01:00:00,-999.0,-99.9,29.91,WSW,254,0.0,0.0,-999,-99.99,,,-99.99,0.000000,,2013-05-23 08:00:00,
2013-05-23 01:12:00,-999.0,-99.9,29.92,WSW,254,0.0,0.0,-999,-99.99,,,-99.99,0.000000,,2013-05-23 08:12:00,
2013-05-23 01:22:00,-999.0,-99.9,29.91,WSW,254,0.0,0.0,-999,-99.99,,,-99.99,0.000000,,2013-05-23 08:22:00,
2013-05-23 01:32:00,-999.0,-99.9,29.90,WSW,254,0.0,0.0,-999,-99.99,,,-99.99,0.000000,,2013-05-23 08:32:00,
2013-05-23 01:40:00,-999.0,-99.9,29.90,WSW,255,0.0,0.0,-999,-99.99,,,-99.99,0.000000,,2013-05-23 08:40:00,
2013-05-23 01:42:00,-999.0,-99.9,29.90,WSW,254,0.0,0.0,-999,-99.99,,,-99.99,0.000000,,2013-05-23 08:42:00,
2013-05-23 01:52:00,-999.0,-99.9,29.91,WSW,254,0.0,0.0,-999,-99.99,,,-99.99,0.000000,,2013-05-23 08:52:00,
2013-05-23 02:11:00,-999.0,-99.9,29.91,WSW,254,0.0,0.0,-999,-99.99,,,-99.99,0.000000,,2013-05-23 09:11:00,
2013-05-23 02:22:00,-999.0,-99.9,29.90,WSW,254,0.0,0.0,-999,-99.99,,,-99.99,0.000000,,2013-05-23 09:22:00,
2013-05-23 02:33:00,-999.0,-99.9,29.90,WSW,255,0.0,0.0,-999,-99.99,,,-99.99,0.000000,,2013-05-23 09:33:00,
2013-05-23 02:53:00,-999.0,-99.9,29.90,WSW,254,0.0,0.0,-999,-99.99,,,-99.99,0.000000,,2013-05-23 09:53:00,
2013-05-23 03:03:00,-999.0,-99.9,29.90,WSW,254,0.0,0.0,-999,-99.99,,,-99.99,0.000000,,2013-05-23 10:03:00,
2013-05-23 03:13:00,-999.0,-99.9,29.91,WSW,254,0.0,0.0,-999,-99.99,,,-99.99,0.000000,,2013-05-23 10:13:00,
2013-05-23 03:22:00,-999.0,-99.9,29.90,WSW,254,0.0,0.0,-999,-99.99,,,-99.99,0.000000,,2013-05-23 10:22:00,
2013-05-23 03:32:00,-999.0,-99.9,29.90,WSW,254,0.0,0.0,-999,-99.99,,,-99.99,0.000000,,2013-05-23 10:32:00,
2013-05-23 03:42:00,-999.0,-99.9,29.90,WSW,254,0.0,0.0,-999,-99.99,,,-99.99,0.000000,,2013-05-23 10:42:00,
2013-05-23 03:52:00,-999.0,-99.9,29.91,WSW,254,0.0,0.0,-999,-99.99,,,-99.99,0.000000,,2013-05-23 10:52:00,
2013-05-23 04:02:00,-999.0,-99.9,29.91,WSW,254,0.0,0.0,-999,-99.99,,,-99.99,0.000000,,2013-05-23 11:02:00,
2013-05-23 04:12:00,-999.0,-99.9,29.90,WSW,254,0.0,0.0,-999,-99.99,,,-99.99,0.000000,,2013-05-23 11:12:00,
2013-05-23 04:20:00,46.0,42.0,29.91,WSW,254,0.0,0.0,86,-99.99,,,-99.99,0.000000,,2013-05-23 11:20:00,
2013-05-23 04:22:00,-999.0,-99.9,29.90,WSW,254,0.0,0.0,-999,-99.99,,,-99.99,0.000000,,2013-05-23 11:22:00,
2013-05-23 04:32:00,46.0,-99.9,29.91,WSW,254,0.0,0.0,-999,-99.99,,,-99.99,0.000000,,2013-05-23 11:32:00,
2013-05-23 04:40:00,46.0,42.0,29.92,WSW,254,0.0,0.0,86,-99.99,,,-99.99,0.000000,,2013-05-23 11:40:00,
2013-05-23 04:42:00,-999.0,-99.9,29.90,WSW,254,0.0,0.0,-999,-99.99,,,-99.99,0.000000,,2013-05-23 11:42:00,
2013-05-23 04:52:00,-999.0,-99.9,29.90,WSW,254,0.0,0.0,-999,-99.99,,,-99.99,0.000000,,2013-05-23 11:52:00,
2013-05-23 05:02:00,-999.0,-99.9,29.91,WSW,254,0.0,0.0,-999,-99.99,,,-99.99,0.000000,,2013-05-23 12:02:00,
2013-05-23 05:11:00,46.0,42.0,29.91,WSW,254,0.0,0.0,86,-99.99,,,-99.99,0.000000,,2013-05-23 12:11:00,
2013-05-23 05:32:00,46.0,42.0,29.92,WSW,254,0.0,0.0,86,-99.99,,,-99.99,0.000000,,2013-05-23 12:32:00,
2013-05-23 05:52:00,46.0,42.0,29.92,WSW,254,0.0,0.0,86,-99.99,,,-99.99,0.000000,,2013-05-23 12:52:00,
2013-05-23 06:01:00,46.0,42.0,29.91,WSW,254,0.0,0.0,86,-99.99,,,-99.99,0.000000,,2013-05-23 13:01:00,
2013-05-23 06:11:00,46.0,42.0,29.91,WSW,254,0.0,0.0,86,-99.99,,,-99.99,0.000000,,2013-05-23 13:11:00,
2013-05-23 06:21:00,46.0,42.0,29.92,WSW,254,0.0,0.0,87,-99.99,,,-99.99,0.000000,,2013-05-23 13:21:00,
2013-05-23 06:31:00,46.0,43.0,29.92,WSW,254,0.0,0.0,88,-99.99,,,-99.99,1.000000,,2013-05-23 13:31:00,
2013-05-23 06:40:00,46.0,43.0,29.93,WSW,254,0.0,0.0,88,-99.99,,,-99.99,31.000000,,2013-05-23 13:40:00,
2013-05-23 06:41:00,46.0,43.0,29.92,WSW,254,0.0,0.0,88,-99.99,,,-99.99,1.000000,,2013-05-23 13:41:00,
2013-05-23 06:52:00,46.0,43.0,29.92,WSW,254,0.0,0.0,88,-99.99,,,-99.99,8.000000,,2013-05-23 13:52:00,
2013-05-23 07:01:00,46.0,43.0,29.92,WSW,254,0.0,0.0,88,-99.99,,,-99.99,8.000000,,2013-05-23 14:01:00,
2013-05-23 07:11:00,-999.0,-99.9,29.93,WSW,254,0.0,0.0,-999,-99.99,,,-99.99,14.000000,,2013-05-23 14:11:00,
2013-05-23 07:21:00,46.0,43.0,29.93,WSW,254,0.0,0.0,88,-99.99,,,-99.99,22.000000,,2013-05-23 14:21:00,
2013-05-23 07:30:00,46.0,43.0,29.95,WSW,254,0.0,0.0,90,-99.99,,,-99.99,101.000000,,2013-05-23 14:30:00,
2013-05-23 07:32:00,46.0,43.0,29.93,WSW,254,0.0,0.0,88,-99.99,,,-99.99,31.000000,,2013-05-23 14:32:00,
2013-05-23 08:21:00,46.0,43.0,29.95,WSW,254,0.0,0.0,90,-99.99,,,-99.99,101.000000,,2013-05-23 15:21:00,
2013-05-23 08:30:00,46.0,43.0,29.95,WSW,253,0.0,0.0,90,-99.99,,,-99.99,220.000000,,2013-05-23 15:30:00,
2013-05-23 08:50:00,46.0,43.0,29.96,WSW,253,0.0,0.0,88,-99.99,,,-99.99,261.000000,,2013-05-23 15:50:00,
2013-05-23 09:03:00,46.0,43.0,29.95,WSW,253,0.0,0.0,90,-99.99,,,-99.99,179.000000,,2013-05-23 16:03:00,
2013-05-23 09:12:00,46.0,44.0,29.96,WSW,253,0.0,0.0,91,-99.99,,,-99.99,199.000000,,2013-05-23 16:12:00,
2013-05-23 09:22:00,46.0,43.0,29.95,WSW,253,0.0,0.0,90,-99.99,,,-99.99,220.000000,,2013-05-23 16:22:00,
2013-05-23 09:40:00,46.0,43.0,29.96,WSW,253,0.0,0.0,88,-99.99,,,-99.99,363.000000,,2013-05-23 16:40:00,
2013-05-23 09:42:00,46.0,43.0,29.96,WSW,253,0.0,0.0,88,-99.99,,,-99.99,261.000000,,2013-05-23 16:42:00,
2013-05-23 10:11:00,46.0,43.0,29.96,WSW,254,0.0,0.0,88,-99.99,,,-99.99,324.000000,,2013-05-23 17:11:00,
2013-05-23 10:22:00,46.0,43.0,29.96,WSW,253,0.0,0.0,88,-99.99,,,-99.99,343.000000,,2013-05-23 17:22:00,
2013-05-23 10:33:00,46.0,43.0,29.96,WSW,253,0.0,0.0,88,-99.99,,,-99.99,363.000000,,2013-05-23 17:33:00,
2013-05-23 10:50:00,47.0,43.0,29.98,WSW,253,0.0,0.0,87,-99.99,,,-99.99,479.000000,,2013-05-23 17:50:00,
2013-05-23 10:52:00,46.0,43.0,29.96,WSW,253,0.0,0.0,88,-99.99,,,-99.99,398.000000,,2013-05-23 17:52:00,
2013-05-23 11:01:00,46.0,43.0,29.96,WSW,253,0.0,0.0,88,-99.99,,,-99.99,416.000000,,2013-05-23 18:01:00,
2013-05-23 11:11:00,46.0,43.0,29.97,WSW,253,0.0,0.0,88,-99.99,,,-99.99,432.000000,,2013-05-23 18:11:00,
2013-05-23 11:20:00,47.0,42.0,29.99,WSW,253,0.0,0.0,84,-99.99,,,-99.99,516.000000,,2013-05-23 18:20:00,
2013-05-23 11:21:00,46.0,43.0,29.97,WSW,253,0.0,0.0,88,-99.99,,,-99.99,449.000000,,2013-05-23 18:21:00,
2013-05-23 11:32:00,46.0,43.0,29.97,WSW,253,0.0,0.0,88,-99.99,,,-99.99,464.000000,,2013-05-23 18:32:00,
2013-05-23 11:40:00,47.0,43.0,29.99,WSW,253,0.0,0.0,84,-99.99,,,-99.99,538.000000,,2013-05-23 18:40:00,
2013-05-23 11:42:00,47.0,43.0,29.98,WSW,253,0.0,0.0,87,-99.99,,,-99.99,479.000000,,2013-05-23 18:42:00,
2013-05-23 12:01:00,47.0,43.0,29.99,WSW,253,0.0,0.0,84,-99.99,,,-99.99,504.000000,,2013-05-23 19:01:00,
2013-05-23 12:11:00,47.0,42.0,29.99,WSW,253,0.0,0.0,84,-99.99,,,-99.99,516.000000,,2013-05-23 19:11:00,
2013-05-23 12:32:00,47.0,43.0,29.99,WSW,253,0.0,0.0,84,-99.99,,,-99.99,538.000000,,2013-05-23 19:32:00,
2013-05-23 12:52:00,47.0,43.0,30.01,WSW,251,0.0,0.0,85,-99.99,,,-99.99,563.000000,,2013-05-23 19:52:00,
2013-05-23 13:02:00,47.0,43.0,30.01,WSW,251,0.0,0.0,85,-99.99,,,-99.99,563.000000,,2013-05-23 20:02:00,
2013-05-23 13:10:00,48.0,44.0,30.02,WSW,251,0.0,0.0,84,-99.99,,,-99.99,596.000000,,2013-05-23 20:10:00,
2013-05-23 13:11:00,48.0,44.0,30.02,WSW,251,0.0,0.0,86,-99.99,,,-99.99,569.000000,,2013-05-23 20:11:00,
2013-05-23 13:21:00,48.0,44.0,30.02,WSW,251,0.0,0.0,86,-99.99,,,-99.99,575.000000,,2013-05-23 20:21:00,
2013-05-23 13:32:00,48.0,44.0,30.02,WSW,251,0.0,0.0,85,-99.99,,,-99.99,584.000000,,2013-05-23 20:32:00,
2013-05-23 13:41:00,48.0,44.0,30.02,WSW,251,0.0,0.0,85,-99.99,,,-99.99,584.000000,,2013-05-23 20:41:00,
2013-05-23 13:51:00,48.0,44.0,30.02,WSW,251,0.0,0.0,84,-99.99,,,-99.99,596.000000,,2013-05-23 20:51:00,
2013-05-23 14:01:00,48.0,44.0,30.02,WSW,251,0.0,0.0,84,-99.99,,,-99.99,596.000000,,2013-05-23 21:01:00,
2013-05-23 14:20:00,49.0,45.0,30.03,WSW,251,0.0,0.0,85,-99.99,,,-99.99,567.000000,,2013-05-23 21:20:00,
2013-05-23 14:53:00,48.0,44.0,30.03,WSW,251,0.0,0.0,85,-99.99,,,-99.99,581.000000,,2013-05-23 21:53:00,
2013-05-23 15:00:00,48.0,44.0,30.02,WSW,252,0.0,0.0,84,-99.99,,,-99.99,526.000000,,2013-05-23 22:00:00,
2013-05-23 15:02:00,48.0,44.0,30.02,WSW,251,0.0,0.0,85,-99.99,,,-99.99,575.000000,,2013-05-23 22:02:00,
2013-05-23 15:12:00,49.0,45.0,30.03,WSW,251,0.0,0.0,85,-99.99,,,-99.99,567.000000,,2013-05-23 22:12:00,
2013-05-23 15:52:00,48.0,44.0,30.02,WSW,252,0.0,0.0,84,-99.99,,,-99.99,526.000000,,2013-05-23 22:52:00,
2013-05-23 16:31:00,48.0,43.0,30.01,WSW,252,0.0,0.0,84,-99.99,,,-99.99,453.000000,,2013-05-23 23:31:00,
2013-05-23 16:42:00,48.0,43.0,30.01,WSW,252,0.0,0.0,84,-99.99,,,-99.99,453.000000,,2013-05-23 23:42:00,
2013-05-23 16:52:00,48.0,43.0,30.01,WSW,252,0.0,0.0,84,-99.99,,,-99.99,419.000000,,2013-05-23 23:52:00,
2013-05-23 17:01:00,48.0,43.0,30.01,WSW,252,0.0,0.0,84,-99.99,,,-99.99,419.000000,,2013-05-24 00:01:00,
2013-05-23 17:10:00,49.0,45.0,30.01,WSW,252,0.0,0.0,84,-99.99,,,-99.99,303.000000,,2013-05-24 00:10:00,
2013-05-23 17:12:00,49.0,44.0,30.01,WSW,252,0.0,0.0,83,-99.99,,,-99.99,401.000000,,2013-05-24 00:12:00,
2013-05-23 17:21:00,49.0,44.0,30.02,WSW,252,0.0,0.0,83,-99.99,,,-99.99,382.000000,,2013-05-24 00:21:00,
2013-05-23 17:31:00,49.0,44.0,30.01,WSW,253,0.0,0.0,84,-99.99,,,-99.99,344.000000,,2013-05-24 00:31:00,
2013-05-23 17:42:00,49.0,44.0,30.01,WSW,253,0.0,0.0,84,-99.99,,,-99.99,344.000000,,2013-05-24 00:42:00,
2013-05-23 17:52:00,49.0,44.0,30.01,WSW,253,0.0,0.0,84,-99.99,,,-99.99,324.000000,,2013-05-24 00:52:00,
2013-05-23 18:01:00,49.0,45.0,30.01,WSW,252,0.0,0.0,84,-99.99,,,-99.99,303.000000,,2013-05-24 01:01:00,
2013-05-23 18:52:00,49.0,44.0,29.99,WSW,253,0.0,0.0,84,-99.99,,,-99.99,178.000000,,2013-05-24 01:52:00,
2013-05-23 19:01:00,49.0,44.0,29.99,WSW,253,0.0,0.0,84,-99.99,,,-99.99,178.000000,,2013-05-24 02:01:00,
2013-05-23 19:10:00,49.0,44.0,29.97,WSW,254,0.0,0.0,84,-99.99,,,-99.99,71.000000,,2013-05-24 02:10:00,
2013-05-23 19:11:00,49.0,44.0,29.97,WSW,254,0.0,0.0,83,-99.99,,,-99.99,159.000000,,2013-05-24 02:11:00,
2013-05-23 19:21:00,49.0,44.0,29.97,WSW,255,0.0,0.0,83,-99.99,,,-99.99,140.000000,,2013-05-24 02:21:00,
2013-05-23 19:30:00,48.0,44.0,29.98,WSW,255,0.0,0.0,85,-99.99,,,-99.99,44.000000,,2013-05-24 02:30:00,
2013-05-23 19:32:00,49.0,44.0,29.96,WSW,253,0.0,0.0,83,-99.99,,,-99.99,103.000000,,2013-05-24 02:32:00,
2013-05-23 19:42:00,49.0,44.0,29.96,WSW,253,0.0,0.0,83,-99.99,,,-99.99,103.000000,,2013-05-24 02:42:00,
2013-05-23 19:52:00,49.0,44.0,29.97,WSW,254,0.0,0.0,83,-99.99,,,-99.99,86.000000,,2013-05-24 02:52:00,
2013-05-23 20:02:00,49.0,44.0,29.97,WSW,254,0.0,0.0,84,-99.99,,,-99.99,71.000000,,2013-05-24 03:02:00,
2013-05-23 20:10:00,48.0,44.0,29.99,WSW,254,0.0,0.0,86,-99.99,,,-99.99,10.000000,,2013-05-24 03:10:00,
2013-05-23 20:21:00,48.0,44.0,29.98,WSW,255,0.0,0.0,85,-99.99,,,-99.99,44.000000,,2013-05-24 03:21:00,
2013-05-23 20:53:00,48.0,44.0,29.99,WSW,254,0.0,0.0,86,-99.99,,,-99.99,10.000000,,2013-05-24 03:53:00,
2013-05-23 21:03:00,48.0,44.0,29.99,WSW,254,0.0,0.0,86,-99.99,,,-99.99,10.000000,,2013-05-24 04:03:00,
2013-05-23 21:33:00,47.0,44.0,29.99,WSW,255,0.0,0.0,89,-99.99,,,-99.99,0.000000,,2013-05-24 04:33:00,
2013-05-23 21:42:00,47.0,44.0,29.99,WSW,255,0.0,0.0,89,-99.99,,,-99.99,0.000000,,2013-05-24 04:42:00,
2013-05-23 21:52:00,47.0,44.0,29.98,WSW,255,0.0,0.0,90,-99.99,,,-99.99,0.000000,,2013-05-24 04:52:00,
2013-05-23 22:02:00,47.0,44.0,29.99,WSW,255,0.0,0.0,90,-99.99,,,-99.99,0.000000,,2013-05-24 05:02:00,
2013-05-23 22:12:00,47.0,45.0,29.98,WSW,255,0.0,0.0,91,-99.99,,,-99.99,0.000000,,2013-05-24 05:12:00,
2013-05-23 22:22:00,47.0,45.0,29.99,WSW,255,0.0,0.0,91,-99.99,,,-99.99,0.000000,,2013-05-24 05:22:00,
2013-05-23 22:32:00,47.0,45.0,29.99,WSW,255,0.0,0.0,92,-99.99,,,-99.99,0.000000,,2013-05-24 05:32:00,
2013-05-23 22:42:00,47.0,45.0,29.99,WSW,255,0.0,0.0,92,-99.99,,,-99.99,0.000000,,2013-05-24 05:42:00,
2013-05-23 22:52:00,47.0,45.0,30.00,WSW,255,0.0,0.0,93,-99.99,,,-99.99,0.000000,,2013-05-24 05:52:00,
2013-05-23 23:01:00,47.0,45.0,30.00,WSW,255,0.0,0.0,93,-99.99,,,-99.99,0.000000,,2013-05-24 06:01:00,
2013-05-23 23:12:00,47.0,45.0,30.00,WSW,255,0.0,0.0,93,-99.99,,,-99.99,0.000000,,2013-05-24 06:12:00,
2013-05-23 23:21:00,47.0,45.0,29.99,WSW,255,0.0,0.0,93,-99.99,,,-99.99,0.000000,,2013-05-24 06:21:00,
2013-05-23 23:32:00,47.0,45.0,30.00,WSW,255,0.0,0.0,94,-99.99,,,-99.99,0.000000,,2013-05-24 06:32:00,
2013-05-23 23:41:00,47.0,45.0,30.00,WSW,255,0.0,0.0,94,-99.99,,,-99.99,0.000000,,2013-05-24 06:41:00,
2013-05-23 23:52:00,47.0,46.0,30.00,WSW,255,0.0,0.0,94,-99.99,,,-99.99,0.000000,,2013-05-24 06:52:00,